Location: Cornospital
(48.0620°N, 3.3837°W)
Time: 19:57:23
(UTC+00:00)

NOSS 8 (A) - Pass Details

Date: 17 June 2021
Orbit: 369 x 1767 km, 63.3° (Epoch: 16 July)

Event Time Altitude Azimuth Distance (km) Brightness Sun altitude
Rises 21:18:07 0° 216° (SW) 2,600 8.1 -8.3°
Reaches altitude 10° 21:20:27 10° 215° (SW) 1,581 7.0 -8.6°
Maximum altitude 21:23:47 76° 130° (SE) 413 4.0 -8.9°
Drops below altitude 10° 21:26:43 10° 44° (NE) 1,383 7.0 -9.2°
Sets 21:28:39 0° 42° (NE) 2,232 8.1 -9.4°
